Wind_Speed
45 46 46 46 46 46 47 46 46 47 47 47 45 43 44 46 45 46 48 50 54 57 60 63 67 71 76 81 83 87 89 89 91 92 93 94 95 98 100 102 103 104 103 102
49 50 49 49 49 48 45 45 44 46 47 43 44 42 42 45 47 47 50 51 53 55 58 61 67 70 75 79 82 84 86 89 90 91 91 92 94 96 98 102 105 106 106 107
50 50 49 48 47 46 46 46 43 44 45 42 42 44 44 46 48 48 50 50 49 53 58 61 67 70 73 72 76 80 81 84 85 85 87 88 89 92 96 100 102 104 105 108
48 48 47 48 47 45 44 45 42 42 43 42 42 44 45 44 48 50 46 45 50 56 61 63 64 64 65 64 65 67 71 74 75 76 77 79 82 84 88 92 97 100 103 104
48 49 46 43 46 45 41 45 43 45 42 43 42 38 43 40 43 45 48 51 54 56 62 66 66 60 55 55 55 55 58 60 64 68 68 70 73 76 79 82 85 90 95 99
45 47 45 45 45 43 41 41 40 41 40 40 34 32 34 40 42 46 51 56 56 56 61 62 58 56 52 55 52 53 54 58 59 59 59 58 60 63 67 71 73 77 81 86
42 46 43 39 37 38 33 35 38 35 34 35 29 31 35 42 44 48 52 54 54 57 59 58 57 56 52 54 51 52 53 52 48 47 49 52 57 60 61 64 67 69 72 75
42 40 38 36 37 39 37 37 40 37 36 38 38 36 40 43 47 48 48 51 56 57 56 59 57 55 53 53 52 51 55 54 46 44 46 50 53 56 57 58 59 60 62 65
43 41 41 41 42 41 37 38 41 42 41 41 42 43 46 48 46 46 50 54 57 59 62 61 60 56 53 52 53 51 55 54 48 44 48 50 51 51 49 52 54 56 57 58
45 43 44 45 45 42 39 41 42 45 43 45 46 47 51 48 46 47 51 54 57 61 62 67 63 56 51 51 54 53 56 52 43 44 48 49 47 46 48 49 49 51 51 50
47 44 45 45 49 47 44 44 44 42 44 47 49 52 54 50 48 51 53 55 58 63 64 69 63 60 53 53 54 51 58 49 43 43 45 43 42 43 43 44 44 43 43 41
50 50 47 49 49 50 48 46 44 44 46 47 47 48 57 53 51 53 58 58 59 64 70 67 62 60 56 56 54 52 55 47 42 43 40 42 39 39 40 42 42 43 43 42
55 51 54 55 55 52 50 48 50 49 50 49 47 48 51 53 57 59 59 61 62 66 70 62 60 59 61 55 54 51 52 44 45 37 38 40 36 37 42 46 46 46 45 39
60 59 59 61 59 57 54 53 53 53 54 53 54 50 54 56 53 54 57 59 61 66 67 59 61 62 59 55 52 50 45 43 39 36 41 36 38 44 44 50 52 52 48 38
63 64 64 64 64 62 59 58 58 57 58 57 56 55 56 58 58 58 57 61 64 65 57 59 65 60 58 56 52 53 44 39 37 40 36 37 43 50 53 53 54 50 39 31
65 65 67 67 68 65 63 63 61 58 58 58 58 59 59 58 56 56 59 59 60 55 59 63 59 59 62 52 47 49 44 39 38 39 37 44 50 55 53 54 46 37 27 22
69 68 69 70 70 66 66 65 63 59 57 58 58 60 61 58 58 59 56 56 53 57 57 56 61 63 58 49 43 41 39 35 37 35 42 48 51 53 55 43 32 25 21 20
69 70 72 73 73 68 69 66 63 60 59 60 60 60 60 56 53 50 52 51 54 54 56 59 61 61 48 38 37 36 30 34 35 41 45 50 51 47 38 28 23 20 17 16
66 68 70 71 70 68 66 65 63 61 59 59 59 59 56 52 51 52 50 54 52 55 56 60 63 50 37 33 32 25 30 30 36 45 46 45 41 33 27 20 18 15 12 12
70 69 70 68 69 67 65 66 62 61 58 58 55 53 51 50 51 46 52 51 53 57 61 63 58 39 28 27 22 24 24 32 41 45 41 38 29 23 18 14 11 12 12 10
73 71 72 71 65 66 68 66 59 59 52 50 50 50 47 49 45 48 49 52 57 61 65 63 46 29 22 21 18 17 27 36 39 38 36 32 24 15 12 11 10 13 13 12
72 69 73 68 68 65 66 62 57 50 49 49 46 44 41 43 48 51 51 57 62 66 65 43 28 17 15 13 11 18 28 33 37 29 29 22 17 14 15 18 21 18 19 20
65 65 61 58 53 51 49 47 45 45 47 42 41 41 42 46 52 52 54 59 63 64 43 26 16 9 9 6 10 21 25 31 30 25 18 14 13 15 20 21 20 22 24 23
54 53 48 46 42 40 42 44 45 45 41 40 40 43 47 51 53 53 55 58 62 53 31 16 9 7 1 5 10 18 21 23 25 22 21 20 18 23 28 28 32 37 40 39
50 47 45 40 39 39 41 41 43 41 40 40 43 46 48 52 53 53 55 57 60 43 21 11 8 7 7 4 9 15 13 21 25 29 30 34 38 42 47 53 58 64 65 64
49 47 44 42 42 43 43 42 41 43 44 46 46 47 51 54 53 55 55 58 49 31 14 12 12 12 10 6 10 11 17 20 30 32 33 39 48 48 51 53 54 53 54 55
Wind_Direction
285 285 284 284 283 281 281 278 276 276 277 278 279 279 280 280 280 280 280 278 278 279 279 278 277 277 278 278 278 277 275 272 270 269 268 268 269 269 269 269 267 266 265 264
283 284 285 283 283 282 280 277 277 278 277 277 279 279 279 280 280 279 277 276 275 274 274 278 281 282 283 282 280 278 276 275 274 273 271 270 269 268 267 265 263 262 262 263
286 284 283 282 282 282 281 278 277 276 276 276 277 280 278 280 277 276 274 274 278 281 283 284 286 289 287 286 283 279 277 275 274 273 272 269 266 265 266 266 266 264 263 262
286 283 282 281 280 278 279 279 277 276 275 278 279 282 280 279 277 275 276 282 285 289 288 294 298 297 293 289 285 283 279 277 275 274 273 272 271 269 268 266 266 266 266 265
286 280 280 278 275 277 277 279 280 278 280 279 278 279 280 276 277 284 289 291 293 295 301 304 302 298 296 296 295 290 285 280 280 282 278 273 271 270 269 268 267 266 265 265
282 278 276 274 276 277 278 280 282 284 284 282 284 277 275 279 284 290 294 295 299 305 302 302 305 299 303 313 305 295 291 288 286 282 279 278 277 274 271 270 269 269 269 268
275 274 274 272 277 278 277 284 284 286 287 285 288 287 281 284 289 291 295 301 302 305 304 305 309 311 312 312 308 304 303 296 285 277 274 274 276 277 278 276 274 273 273 273
270 267 268 271 274 275 278 282 282 284 285 287 289 288 287 287 289 295 294 296 300 309 312 313 313 310 317 316 312 307 309 302 288 282 281 281 283 282 282 283 281 280 279 278
262 264 267 271 274 276 279 282 283 284 285 287 291 290 286 287 292 295 292 294 301 306 310 312 311 312 318 320 314 310 313 309 296 292 289 290 288 287 289 288 285 284 283 281
259 262 267 270 276 275 280 281 285 285 285 285 289 290 288 288 289 289 290 294 298 303 307 315 312 315 318 320 314 314 316 311 296 291 294 292 292 294 292 291 288 287 288 288
258 262 264 271 276 278 280 281 285 285 287 289 291 291 290 290 292 292 294 295 301 306 309 313 314 318 318 317 314 314 314 309 296 296 293 292 294 298 291 291 292 293 291 289
259 261 264 269 271 276 280 282 285 288 290 296 291 292 292 292 293 291 293 298 302 305 308 310 315 321 320 316 314 309 311 308 299 296 293 300 299 293 294 294 294 293 292 288
261 264 268 268 268 271 276 281 285 286 289 292 295 289 287 290 290 292 293 295 297 303 306 310 315 320 319 317 319 310 316 308 303 303 299 299 296 299 304 307 302 296 292 290
256 261 264 267 268 271 275 279 283 282 287 292 297 292 284 288 289 291 293 294 296 300 306 309 317 318 318 320 316 311 320 309 302 301 302 302 309 316 315 315 305 297 295 288
251 257 263 266 269 272 275 276 276 280 287 292 294 288 286 285 287 291 295 296 298 304 307 315 316 315 319 319 316 318 320 304 304 311 307 309 318 322 317 315 304 301 294 285
252 254 259 264 268 272 276 276 278 282 289 291 288 287 286 286 288 292 296 297 303 308 313 312 314 316 321 318 315 318 312 310 315 317 310 315 317 321 317 313 307 303 293 276
252 254 258 264 267 270 273 275 280 286 287 289 287 284 285 286 287 292 295 301 303 308 310 313 315 319 320 314 312 311 310 317 318 314 315 313 318 320 319 316 315 308 294 280
251 254 258 263 266 269 272 275 280 283 285 287 285 284 285 286 291 296 299 300 307 309 312 313 314 316 313 307 312 309 315 319 316 317 318 320 322 321 322 325 321 317 305 290
252 254 257 261 265 269 272 275 278 281 283 284 283 283 284 291 296 295 300 308 308 309 308 312 314 315 310 309 310 317 322 322 322 321 326 330 328 328 331 332 324 320 317 300
253 255 258 260 264 269 272 277 277 279 282 278 280 281 285 289 290 295 303 305 304 305 310 312 316 313 304 308 312 324 326 327 323 328 338 339 334 338 339 343 335 337 344 359
252 256 259 262 264 268 271 274 276 279 274 276 279 283 285 287 293 300 302 302 307 310 313 314 310 300 302 306 319 327 331 328 327 341 349 349 347 350 10 10 15 30 29 43
257 259 262 265 266 267 269 272 272 268 270 271 278 284 285 293 298 301 304 308 310 312 314 309 298 286 297 306 332 339 331 335 336 352 354 360 17 34 51 52 48 51 57 65
256 258 261 263 264 263 262 261 263 265 269 278 281 285 291 297 299 303 307 309 309 313 313 302 281 283 287 336 0 340 355 344 353 358 1 8 35 53 66 68 71 68 71 86
249 253 257 256 254 254 255 257 262 267 273 273 280 288 293 295 299 302 304 308 313 318 309 290 253 245 174 42 358 18 360 6 27 45 38 45 60 69 71 77 81 80 81 85
242 246 248 249 251 252 254 259 262 267 271 277 282 285 288 293 298 304 308 315 316 316 296 248 211 194 138 68 47 28 48 52 49 61 68 79 82 86 89 89 89 89 89 88
245 247 249 251 252 254 255 258 264 269 273 274 278 285 290 295 302 306 313 316 310 306 269 208 193 170 151 113 75 81 93 79 86 84 82 87 93 92 92 92 91 92 90 91
Height
10830 10829 10828 10827 10825 10825 10824 10824 10822 10819 10816 10815 10813 10812 10809 10806 10806 10804 10801 10798 10794 10789 10784 10777 10771 10764 10756 10750 10746 10740 10734 10732 10728 10726 10726 10726 10726 10723 10721 10717 10715 10714 10716 10719
10820 10819 10817 10815 10813 10813 10812 10811 10811 10809 10806 10806 10802 10802 10799 10797 10795 10794 10791 10788 10784 10778 10772 10766 10758 10752 10743 10734 10726 10718 10713 10707 10706 10704 10704 10705 10702 10699 10694 10689 10686 10685 10687 10690
10809 10808 10806 10805 10803 10802 10801 10799 10802 10800 10796 10797 10794 10791 10792 10788 10785 10782 10779 10776 10771 10766 10760 10755 10746 10737 10727 10717 10704 10697 10692 10685 10684 10683 10680 10677 10675 10671 10667 10662 10661 10662 10663 10662
10800 10796 10795 10793 10791 10792 10790 10787 10790 10789 10787 10786 10786 10782 10780 10777 10770 10768 10768 10764 10759 10753 10746 10737 10730 10720 10710 10699 10690 10681 10674 10668 10664 10660 10656 10651 10648 10647 10644 10640 10637 10635 10633 10634
10789 10785 10785 10783 10779 10781 10780 10775 10777 10776 10778 10776 10776 10776 10767 10765 10759 10755 10752 10749 10745 10739 10729 10720 10711 10704 10694 10685 10675 10667 10659 10653 10646 10641 10638 10632 10627 10625 10621 10616 10613 10610 10608 10606
10780 10774 10774 10771 10769 10770 10770 10767 10766 10764 10765 10763 10766 10764 10760 10753 10750 10745 10741 10735 10730 10726 10716 10707 10696 10687 10678 10668 10659 10651 10644 10636 10628 10621 10615 10611 10607 10603 10600 10596 10594 10590 10587 10584
10769 10763 10763 10762 10761 10758 10761 10758 10755 10756 10754 10750 10754 10752 10749 10742 10739 10735 10729 10721 10717 10714 10704 10693 10683 10672 10667 10658 10647 10636 10627 10618 10610 10604 10600 10596 10591 10588 10586 10581 10576 10572 10569 10565
10756 10756 10753 10753 10751 10750 10751 10750 10746 10745 10745 10743 10742 10743 10738 10733 10729 10725 10718 10712 10706 10700 10689 10679 10671 10664 10656 10646 10636 10625 10615 10606 10598 10592 10588 10583 10578 10573 10568 10565 10562 10558 10554 10550
10745 10745 10744 10741 10741 10740 10743 10740 10736 10735 10735 10734 10733 10730 10727 10723 10720 10714 10706 10700 10693 10686 10680 10671 10661 10652 10646 10635 10624 10615 10606 10596 10589 10583 10576 10570 10564 10559 10555 10550 10545 10541 10536 10532
10734 10736 10733 10731 10730 10731 10734 10731 10728 10725 10726 10722 10722 10719 10712 10714 10711 10705 10698 10692 10685 10677 10668 10659 10650 10641 10633 10623 10611 10602 10595 10586 10579 10571 10565 10559 10553 10548 10542 10537 10532 10526 10521 10517
10722 10725 10724 10721 10717 10719 10721 10721 10719 10718 10716 10713 10710 10704 10699 10700 10699 10692 10685 10679 10672 10661 10652 10646 10636 10629 10621 10610 10600 10592 10583 10575 10568 10562 10555 10549 10543 10538 10533 10527 10520 10513 10507 10503
10709 10711 10713 10712 10710 10707 10708 10708 10709 10708 10706 10705 10702 10698 10683 10687 10685 10679 10671 10666 10659 10651 10644 10634 10627 10618 10609 10598 10590 10582 10573 10563 10557 10550 10545 10540 10534 10529 10522 10515 10507 10501 10496 10492
10695 10699 10696 10696 10696 10698 10698 10698 10698 10698 10697 10696 10695 10690 10682 10677 10671 10665 10661 10657 10650 10642 10633 10626 10617 10608 10598 10587 10579 10570 10562 10553 10546 10540 10536 10530 10525 10519 10512 10504 10496 10489 10483 10479
10685 10684 10683 10679 10682 10685 10687 10688 10688 10685 10684 10686 10684 10680 10672 10667 10660 10656 10652 10646 10639 10630 10623 10615 10606 10596 10586 10578 10569 10560 10551 10544 10538 10533 10528 10522 10516 10509 10500 10491 10482 10474 10469 10467
10671 10670 10667 10666 10666 10670 10674 10674 10674 10676 10675 10675 10671 10666 10661 10656 10651 10647 10641 10634 10626 10619 10612 10603 10594 10585 10576 10568 10558 10550 10543 10536 10532 10526 10518 10512 10506 10497 10487 10479 10467 10461 10456 10456
10658 10660 10656 10653 10653 10658 10658 10656 10659 10663 10665 10663 10658 10652 10647 10643 10639 10636 10629 10621 10614 10606 10599 10593 10584 10575 10565 10557 10550 10543 10536 10529 10525 10517 10510 10504 10495 10486 10475 10465 10455 10449 10446 10446
10640 10643 10642 10640 10640 10645 10643 10643 10646 10652 10649 10645 10642 10637 10634 10632 10629 10625 10618 10609 10602 10597 10591 10582 10572 10564 10557 10549 10544 10538 10531 10524 10517 10510 10503 10495 10486 10475 10464 10453 10446 10441 10439 10439
10623 10627 10626 10624 10625 10630 10627 10632 10634 10635 10635 10632 10628 10623 10620 10620 10619 10612 10605 10598 10594 10586 10579 10570 10563 10558 10548 10542 10537 10532 10526 10519 10511 10505 10496 10485 10475 10463 10453 10447 10441 10437 10435 10434
10607 10609 10609 10609 10611 10615 10617 10619 10621 10621 10622 10618 10611 10608 10608 10608 10606 10598 10593 10588 10582 10576 10570 10563 10556 10547 10539 10535 10532 10527 10521 10514 10506 10497 10487 10475 10465 10456 10449 10444 10440 10436 10434 10432
10588 10591 10592 10598 10597 10602 10601 10601 10606 10606 10607 10600 10599 10598 10599 10597 10592 10590 10585 10579 10574 10567 10560 10552 10543 10536 10532 10530 10528 10523 10517 10509 10501 10491 10478 10468 10460 10453 10447 10444 10441 10437 10434 10432
10570 10576 10577 10580 10588 10588 10585 10587 10592 10592 10588 10587 10587 10588 10587 10582 10580 10578 10575 10569 10562 10554 10546 10538 10532 10529 10528 10526 10525 10520 10513 10505 10495 10486 10476 10467 10459 10453 10449 10446 10443 10438 10435 10434
10555 10560 10562 10567 10571 10576 10571 10574 10576 10576 10575 10575 10578 10576 10573 10571 10569 10566 10562 10556 10548 10541 10534 10528 10524 10524 10524 10524 10522 10517 10511 10502 10492 10484 10478 10471 10465 10459 10454 10450 10445 10443 10440 10439
10541 10544 10548 10552 10558 10560 10559 10559 10561 10561 10561 10565 10563 10561 10561 10560 10556 10553 10551 10545 10539 10532 10524 10520 10519 10520 10521 10521 10519 10515 10510 10500 10490 10484 10481 10476 10470 10465 10460 10455 10453 10451 10449 10449
10527 10531 10537 10540 10544 10548 10547 10547 10549 10550 10554 10552 10552 10552 10551 10548 10546 10545 10542 10538 10529 10521 10516 10515 10515 10517 10520 10519 10518 10515 10509 10501 10494 10489 10486 10481 10477 10474 10469 10467 10465 10463 10461 10462
10513 10520 10525 10530 10533 10536 10536 10538 10538 10541 10541 10542 10543 10543 10541 10538 10537 10535 10531 10526 10516 10512 10511 10511 10513 10516 10518 10518 10518 10516 10512 10507 10504 10500 10496 10492 10488 10484 10482 10481 10480 10479 10479 10480
10503 10508 10513 10517 10520 10523 10526 10528 10529 10530 10531 10532 10532 10532 10530 10526 10526 10522 10521 10516 10508 10506 10506 10508 10511 10515 10517 10517 10519 10518 10516 10514 10513 10511 10509 10506 10503 10500 10499 10496 10495 10493 10494 10494